TimeEST,TemperatureF,Dew PointF,Humidity,Sea Level PressureIn,VisibilityMPH,Wind Direction,Wind SpeedMPH,Gust SpeedMPH,PrecipitationIn,Events,Conditions,WindDirDegrees,DateUTC
12:53 AM,39.0,35.1,86,30.08,7.0,NW,8.1,-,N/A,,Clear,310,2012-11-08 05:53:00
1:53 AM,37.9,33.1,83,30.09,9.0,NW,3.5,-,N/A,,Clear,310,2012-11-08 06:53:00
2:53 AM,37.0,32.0,82,30.10,8.0,WNW,3.5,-,N/A,,Clear,300,2012-11-08 07:53:00
3:53 AM,35.1,30.9,85,30.12,8.0,WNW,3.5,-,N/A,,Clear,290,2012-11-08 08:53:00
4:53 AM,34.0,30.9,89,30.13,6.0,West,3.5,-,N/A,,Clear,270,2012-11-08 09:53:00
5:53 AM,34.0,30.0,85,30.15,8.0,Calm,Calm,-,N/A,,Clear,0,2012-11-08 10:53:00
6:53 AM,32.0,28.4,87,30.16,5.0,West,3.5,-,N/A,,Clear,270,2012-11-08 11:53:00
7:53 AM,33.1,30.9,92,30.20,5.0,West,4.6,-,N/A,,Clear,280,2012-11-08 12:53:00
8:53 AM,35.1,30.9,85,30.23,7.0,Calm,Calm,-,N/A,,Clear,0,2012-11-08 13:53:00
9:53 AM,37.9,32.0,79,30.24,7.0,NW,3.5,-,N/A,,Clear,310,2012-11-08 14:53:00
10:53 AM,39.9,32.0,73,30.25,10.0,WNW,5.8,-,N/A,,Clear,300,2012-11-08 15:53:00
11:53 AM,44.1,30.9,60,30.23,10.0,Calm,Calm,-,N/A,,Clear,0,2012-11-08 16:53:00
12:53 PM,48.0,30.0,50,30.20,10.0,Calm,Calm,-,N/A,,Clear,0,2012-11-08 17:53:00
1:53 PM,48.9,30.0,48,30.19,10.0,Calm,Calm,-,N/A,,Clear,0,2012-11-08 18:53:00
2:53 PM,51.1,28.9,43,30.17,10.0,West,5.8,-,N/A,,Clear,280,2012-11-08 19:53:00
3:53 PM,51.1,28.0,41,30.18,10.0,Calm,Calm,-,N/A,,Clear,0,2012-11-08 20:53:00
4:53 PM,50.0,26.1,39,30.18,10.0,Calm,Calm,-,N/A,,Clear,0,2012-11-08 21:53:00
5:53 PM,46.9,23.0,39,30.19,10.0,West,3.5,-,N/A,,Clear,280,2012-11-08 22:53:00
6:53 PM,46.0,25.0,44,30.21,10.0,WNW,3.5,-,N/A,,Clear,300,2012-11-08 23:53:00
7:53 PM,45.0,25.0,46,30.21,10.0,NW,4.6,-,N/A,,Clear,310,2012-11-09 00:53:00
8:53 PM,44.1,26.1,49,30.21,10.0,Calm,Calm,-,N/A,,Clear,0,2012-11-09 01:53:00
9:53 PM,42.1,26.1,53,30.21,10.0,Calm,Calm,-,N/A,,Clear,0,2012-11-09 02:53:00
10:53 PM,39.9,26.1,58,30.21,10.0,Calm,Calm,-,N/A,,Clear,0,2012-11-09 03:53:00
11:53 PM,39.9,26.1,58,30.21,10.0,Calm,Calm,-,N/A,,Clear,0,2012-11-09 04:53:00